ATLAS 5 CENTAUR DEB, 55857

Orbit data source: Space-Track

ATLAS 5 CENTAUR DEB, 55857 is space debris in HEO originally from a launch on Wed, 17 Oct 2018 UTC launched from the Air Force Eastern Test Range (AFETR). Debris objects in space refer to the collection of defunct objects orbiting the Earth. Examples of debris include non-operational satellites, rocket bodies, and fragments generated from explosions, collisions, or faulty payload assembly.

Loading next visibility...
Identifier
55857, 2018-079HK
Orbit
HEO
Country
Flag of USUS
Related business
Flag of USUnited Launch Alliance/Lockheed Martin (US)
Manufacturer
ULA Decatur
Mission
Spacecraft
Bus & Motor
Unknown
Mass
Unknown
Launch date (UTC)
2018-10-17 (8 years ago)
Launch vehicle
Unknown
Launch site
Air Force Eastern Test Range (AFETR)
Object type
Payload
Rocket body
Debris
Shape & HBR
Unknown shape, 1.1 m
Radar Cross Section
RCS unknown

Expand to show TLE details & history
Last TLE update: 17 hours ago

TLE from 17 hours ago
0 ATLAS 5 CENTAUR DEB
1 55857U 18079HK  26222.39490044 -.00000082  00000-0  00000+0 0  9992
2 55857  13.7924 343.5023 4542523  59.0399 337.8192  2.00178934 27802
Epoch: 2026-08-10T09:28Z
TLE epoch observation values (Epoch: 2026-08-10T09:28:39.398Z)
Latitude
-0.00002°
Longitude
-117.49121°
Altitude
10,754.385 km
Speed
5.616 km/s
True Right ascension
22h 54m 12s
True Declination
0° 00' 00"
Sunlit
Object was in daylight at epoch
Visualization orbit readout
Latitude
Unknown
Longitude
Unknown
Altitude
Unknown
Speed
Unknown
Apparent Right ascension
Unknown
Apparent Declination
Unknown
Sunlit
N/A
Visualization observer readout
Local Sidereal Time
17:04:49
Azimuth
Unknown
Elevation
Unknown
Doppler factor
Unknown
Orbital elements
Apogee altitude
32,299.916 km
Perigee altitude
8,136.854 km
Semi-major axis
26,596.522 km
Eccentricity
0.45425
Inclination
13.7924°
RAAN
343.5023°
Arg. of periapsis
59.0399°
True anomaly
300.88052°
Mean anomaly
337.8192°
Eccentric anomaly
321.68193°
Mean motion
0.50039 °/min
Orbital period
719.44 mins
BSTAR
0
Loading maneuver chart data...
Computing Atmospheric mass density...

Documentation

Showing up to 5 results
|